Uncategorized

2001 Ratings: D1 Boys State

Adjustment: -4

GradeNameTimeTeamRating
11Tim Moore15:11.3Novi217.6
11Jake Hammerle15:35.6Woodhaven-Brownstown209.5
11Justin Zanotti15:41.5Macomb L’Anse Creuse North207.5
11Matthew French15:42.7Howell207.1
11John Krawiec15:47.5Detroit Catholic Central205.5
11Justin Hajduk15:49.5Salem204.8
11Nicholas Gillett15:50.6Troy204.5
11Dan Murray15:53.0Brother Rice203.7
11Lance Vanderberg15:54.7Muskegon Mona Shores203.1
9David Lucas15:56.6Detroit Catholic Central202.5
11Chris Catton15:57.1Grand Blanc202.3
11Corey Nowitzke15:57.8Monroe202.1
12Jason Schoener15:58.2Grand Blanc201.9
11Troy Terry15:58.4Utica Eisenhower201.9
11Dana Irrer15:59.2Okemos201.6
11Nick Kopczyk15:59.7Highland-Milford201.4
11Andrew Thorson16:00.5Grand Ledge201.2
10Kevin Gienapp16:01.1Brighton201.0
11Kevin Naughton16:02.9Walled Lake Western200.4
10Adam Craig16:03.1White Lake Lakeland200.3
10Dustin Voss16:04.8Saline199.7
11Michael Colt16:06.2Lake Orion199.3
11James Naughton16:09.3Ann Arbor Pioneer198.2
9James Anai16:09.4Grand Ledge198.2
9Tad Hulst16:10.5Zeeland (split to East/West)197.8
10Tim Marshall16:12.3Jackson197.2
11William Chapman16:13.5Livonia Churchill196.8
11Brian Theut16:13.9White Lake Lakeland196.7
11Ryan Sucharski16:14.5Macomb Dakota196.5
10Chris Welch16:15.1White Lake Lakeland196.3
10Pat Miller16:15.3Highland-Milford196.2
11Greg Haapala16:16.1Detroit U-D Jesuit196.0
11Ryan Gall16:18.0Livonia Churchill195.3
10Andrew Manning16:18.8Traverse City Central195.1
11Matt Johnson16:21.7Temperance Bedford194.1
11Mick Tiffany16:22.0Traverse City Central194.0
9Tim Kenny16:22.0TC West (Traverse City)194.0
10Kevin Coch16:23.9East Kentwood193.4
12Matthew Reed16:24.6Fraser193.1
11Patrick Dantzer16:25.0Grosse Pointe South193.0
10Mark Sitko16:26.1Clarkston192.6
9Neal Naughton16:28.6Walled Lake Western191.8
9Erickson James16:29.7Belleville191.4
12Joel Conn16:30.4Grand Blanc191.2
11Tyson Warner16:30.5Portage Northern191.2
11Kyle Jekot16:30.8Detroit Catholic Central191.1
9Bruce LaFrance16:30.9Warren Mott191.0
9Tim Kaijala16:31.0Muskegon Mona Shores191.0
10Alex Wood16:31.0TC West (Traverse City)191.0
9David Brown16:31.0Port Huron Northern191.0
11Dan Johnson16:31.2TC West (Traverse City)190.9
10Chris Beach16:31.6Portage Northern190.8
11Andrew Lapham16:31.9South Lyon190.7
11Andrew Rittenhouse16:32.1GR_Union190.6
9Kyle Mena16:32.6Portage Northern190.5
11Andy Pitchford16:32.9Portage Central190.4
10Eric Huffman16:33.1Swartz Creek190.3
9Adam Koepfer16:33.9Temperance Bedford190.0
11Logan Schultz16:34.1Livonia Churchill190.0
10Jared Elmore16:34.2Clarkston189.9
9Ryan Cooper16:34.3Portage Northern189.9
11Nicholas Liversedge16:34.3FHC GR_Forest Hills Central189.9
11Brian Lee16:34.5South Lyon189.8
11Andy Harvey16:35.7Ann Arbor Pioneer189.4
10Jeff Draggich16:36.4Sterling Heights189.2
10Cam Ross16:36.4Traverse City Central189.2
11Kris Kammsky16:37.2Howell188.9
11Justin Dew16:37.5Lake Orion188.8
10Tim Copacia16:37.8Utica Eisenhower188.7
10Mohamed Sheikh16:38.0GR_Union188.7
9Kyle Harris16:38.3Highland-Milford188.6
11Jeff Weber16:39.5Grandville188.2
8Steve Czarnecki16:40.3Rochester Adams187.9
11Tyler VanAcker16:40.3Highland-Milford187.9
10Matt Immink16:40.4Holland187.9
10Jim Kutches16:40.5Muskegon Mona Shores187.8
10Jason Arini16:40.9Sterling Heights187.7
11Phil DeCoook16:41.9Troy Athens187.4
8William Peterson16:42.7Lake Orion187.1
9Chris Scott16:42.7TC West (Traverse City)187.1
11Kevin Dorn16:43.2Rockford186.9
11Ian Patterson16:43.5Rochester Adams186.8
12Pat Pruitt16:43.5Canton186.8
8John Black16:44.1Brother Rice186.6
11Aaron Lanning16:44.6Canton186.5
10Christopher Vraniak16:45.7Salem186.1
10Chad Anastasoff16:45.8Temperance Bedford186.1
9Neil Atzinger16:46.2Saline185.9
11Ryan Rys16:47.3White Lake Lakeland185.6
11Jarred Spalsbury16:47.9Grand Ledge185.4
10Matt Plaska16:48.4Zeeland (split to East/West)185.2
10Eric Graf16:48.5Rockford185.2
11Adam Roach16:48.6Port Huron185.1
10Alex Fritz16:50.0Temperance Bedford184.7
10Jonathan Szostak16:51.0Grand Ledge184.3
11Jon Marshall16:51.1Detroit Catholic Central184.3
11Derek Dell16:51.2Holt184.3
11Matt Wish16:51.6Rockford184.1
11James Szopo16:52.3New Baltimore Anchor Bay183.9
10Christopher Haag16:53.8Warren DeLaSalle183.4
10James Leddy16:54.0Salem183.3
11Alex White16:54.7Brother Rice183.1
11Todd Foren16:55.0Novi183.0
11Jim Hagemann16:55.6Detroit U-D Jesuit182.8
11Dennis Hughes16:55.6Muskegon Reeths-Puffer182.8
10Zach Ryan16:55.7Saline182.8
11Andrew Gillett16:56.1Troy182.6
9Jason Hannawa16:58.0Brother Rice182.0
11Ryan Weaver16:58.4Saline181.9
11Skylar Gauss16:59.3TC West (Traverse City)181.6
10Steve Cullen16:59.4Fraser181.5
10Matt Gillespie16:59.5Livonia Stevenson181.5
8Mark Moore16:59.6Novi181.5
10Tim Kava16:59.9Novi181.4
11BJ Meyers17:00.2Rockford181.3
11Casey Barnes17:00.9Highland-Milford181.0
10Brian Doot17:01.2Detroit Catholic Central180.9
11Merhawi Tewoldemedhin17:01.6GR_Union180.8
9Kassem Hammoud17:03.1Dearborn Fordson180.3
11Stephan Wunderlich17:03.3Ann Arbor Huron180.2
11Chris Reimann17:03.6Rochester Adams180.1
9Eric Joseph17:04.1Novi180.0
11Paul Hanna17:04.7Temperance Bedford179.8
11Bryan Seymour17:04.9Detroit Catholic Central179.7
10Alex Grobbel17:05.4Utica Eisenhower179.5
11Mitch Erickson17:06.4Novi179.2
10Anthony McManus17:07.1Traverse City Central179.0
11Mike Schuchardt17:07.4Detroit U-D Jesuit178.9
11Adam Hostetler17:08.0Grand Blanc178.7
10Brandon Worlock17:08.4Adrian178.5
11Andrew Baalerud17:08.5Rochester Adams178.5
9David Hariston17:09.2Grand Ledge178.3
11Chris Kampe17:09.6Utica Eisenhower178.1
8Jeffery Hubbard17:09.8Ann Arbor Pioneer178.1
9Shawn Wilsher17:10.2Lake Orion177.9
11Tim Dubovsky17:10.9Flint Carman-Ainsworth177.7
9Chris Hammer17:11.4Troy Athens177.5
11Geoff Guthrie17:11.6Rockford177.5
11Steve Ball17:12.1Temperance Bedford177.3
10Ben Gannon17:12.7North Farmington177.1
11Joe Anderson17:13.1Ann Arbor Pioneer177.0
10Levi Yoder17:13.3GR_Union176.9
11Michael Carroll17:13.9Troy176.7
8John Hall17:14.4TC West (Traverse City)176.5
9Jeff Brooks17:14.6Flushing176.5
12Brandon McClellan17:14.7Canton176.4
11Nathan Chouinard17:14.8Traverse City Central176.4
9Clark Richter17:15.5Rockford176.2
12Casey Malony17:15.6Canton176.1
11Landon Medley17:15.9Saline176.0
11Adam Kovac17:17.2Grandville175.6
11Jim Kreft17:17.3TC West (Traverse City)175.6
10Soren Berg17:17.9Ann Arbor Pioneer175.4
10Matthew Rymond17:18.3Canton175.2
10Kevin Kane17:20.4Livonia Churchill174.5
8Harrison Beeby17:20.9Traverse City Central174.4
11Scott Moore17:21.0Rochester Adams174.3
12Steven Moore17:21.4Grand Ledge174.2
9Richard Kettles17:21.6Grand Ledge174.1
11Aaron Coury17:22.5Detroit U-D Jesuit173.8
11David Carvey17:22.6Portage Northern173.8
10Jason Young17:22.8Utica Eisenhower173.7
9Ryan McCarl17:23.2Muskegon Mona Shores173.6
10Nikhil Kawlra17:23.4Troy173.5
8Spencer Ornes17:24.0Novi173.3
11Jon Steinhoff17:24.7Grand Blanc173.1
9Mike Kurban17:24.9GR_Union173.0
10Chris Lieblang17:25.0Sterling Heights173.0
9Luke Chrusciel17:25.5Grandville172.8
11Chris Tibaudo17:25.6Grosse Pointe North172.8
9Julia Roberts17:25.8Wayne Memorial172.7
10Andrew Stewart17:27.3Troy172.2
11Matt Esper17:27.6Detroit Catholic Central172.1
9Ryan Gregory17:27.9Brother Rice172.0
9Keith Magic17:28.4Lake Orion171.9
11Mike Roth17:28.7Ann Arbor Pioneer171.8
10David Walline17:29.2Saline171.6
11Jon Hopkins17:30.4Rochester Adams171.2
10Corey Steimel17:31.5Grandville170.8
8Jimmy Partridge17:32.5Sterling Heights170.5
11James Stelzer17:33.1Utica Eisenhower170.3
11Jon Western17:34.3Canton169.9
9Alex Rickens17:34.4White Lake Lakeland169.9
10Bryan Mullins17:34.5Rochester169.8
9Mike Moreland17:34.7Rochester Adams169.8
10David Morgan17:34.7FHN GR_Forest Hills Northern169.8
11Levi Frasier17:35.3Muskegon Mona Shores169.6
11Steve Neshkoff17:35.5Temperance Bedford169.5
12Stephen Debien17:37.0Canton169.0
11Chris Johnson17:38.1Lake Orion168.6
9Dan Pinter17:39.9Saline168.0
12Chris Webster17:40.3Utica Ford167.9
11Daniel Zinser17:41.8Roseville167.4
10Andrew Visger17:43.4Grosse Pointe South166.9
10Grant Griffin17:44.5Grand Blanc166.5
9Chad Murray17:44.7Highland-Milford166.4
10Jonathan Paklain17:45.5Troy166.2
11Chase Howland17:46.6Portage Northern165.8
11Mandeep Sanghe17:50.1Livonia Churchill164.6
9Ryan Dahl17:53.0Lake Orion163.7
9Andrew Gabris17:53.0Muskegon Mona Shores163.7
8Jake Schaner17:54.3Muskegon Mona Shores163.2
9Dave Secord18:02.6Grosse Pointe North160.5
9Ryan Harper18:02.9Traverse City Central160.4
10Justin Brevick18:03.0Livonia Churchill160.3
8Takashi Gould18:05.7Ann Arbor Pioneer159.4
10Ryan Thome18:06.6Grandville159.1
9Scott Brunning18:06.7Troy Athens159.1
10Erik Meerschaert18:06.7Troy Athens159.1
8Alvin Moore18:07.1Troy Athens159.0
9Matt Crampton18:07.6Utica Eisenhower158.8
10Matt Scapini18:07.8Troy158.7
9Mike Bair18:08.4Brother Rice158.5
10Sam Klemet18:10.0Brother Rice158.0
9John Rolecki18:10.6Grand Blanc157.8
9Dominic Fano18:11.8Sterling Heights157.4
9Dan Morris18:13.6GR_Union156.8
10Duane Casbar18:13.9Sterling Heights156.7
9Kevin Olson18:17.9Portage Northern155.4
11Dave Mazur18:20.8Detroit U-D Jesuit154.4
11Robert Hanrahan18:23.9Grosse Pointe South153.4
10Robert Porter18:25.7Grosse Pointe South152.8
9Jon Maten18:26.3Detroit U-D Jesuit152.6
9Tom Szczesny18:27.7Detroit U-D Jesuit152.1
11Jean Harris18:30.0Livonia Churchill151.3
11Tim Lewis18:34.4Grandville149.9
9Seth Weener18:34.4Grandville149.9
11Daniel Safronoff18:37.8Troy Athens148.7
11Dan Fulmer18:39.3Sterling Heights148.2
10Eric Fadie18:43.4White Lake Lakeland146.9
11Alex Mackenzie18:53.0Grosse Pointe South143.7
11Matt Griffen18:55.1Troy Athens143.0
9Josh Paar18:56.7White Lake Lakeland142.4
9Bryan Mackenzie19:02.3Grosse Pointe South140.6
9Matt Geerling19:06.0GR_Union139.3
10Mike Liang19:07.0Grosse Pointe South139.0
10Dan Boozer20:32.7Rockford110.4
9Dan DeRusha22:18.2Highland-Milford75.3

Leave a Reply

Fill in your details below or click an icon to log in:

WordPress.com Logo

You are commenting using your WordPress.com account. Log Out /  Change )

Twitter picture

You are commenting using your Twitter account. Log Out /  Change )

Facebook photo

You are commenting using your Facebook account. Log Out /  Change )

Connecting to %s